Williams, AZ

4:25 PM MST on July 25, 2017 (GMT -0700)
Williams

Weather History for KCMR - May, 2013

Change the Weather History Date:

Saturday, May 25, 2013

  Actual Average (K40G) Record (K40G)
Temperature  
Mean Temperature 62 °F -  
Max Temperature 75 °F 69 °F 75 °F (1998)
Min Temperature 50 °F 61 °F 55 °F (2004)
Degree Days  
Heating Degree Days 2    
Growing Degree Days 12 (Base 50)    
Moisture  
Dew Point 13 °F    
Average Humidity 16    
Maximum Humidity 33    
Minimum Humidity 8    
Precipitation  
Precipitation 0.00 in - - ()
Sea Level Pressure  
Sea Level Pressure 30.20 in    
Wind  
Wind Speed 12 mph (South)    
Max Wind Speed 22 mph    
Max Gust Speed 30 mph    
Visibility 10 miles    
Events      
Averages and records for this station are not official NWS values.
T = Trace of Precipitation, MM = Missing Value Source: NWS Daily Summary

Daily Weather History Graph

Daily Weather History Graph

Search for Another Location

Airport or City:

Trip Planner

Search our weather history database for the weather conditions in past years. The results will help you decide how hot, cold, wet, or windy it might be!

Date:

Astronomy

May. 25, 2013 Rise Set
Actual Time 5:17 AM MST 7:33 PM MST
Civil Twilight 4:49 AM MST 8:02 PM MST
Nautical Twilight 4:13 AM MST 8:38 PM MST
Astronomical Twilight 3:35 AM MST 9:17 PM MST
Moon 8:26 PM MST 5:47 AM MST
Length of Visible Light 15h 13m
Length of Day
14h 15m
Waxing Gibbous, 99% of the Moon is Illuminated
May 25
Waxing Gibbous
May 31
Last Quarter
Jun 8
New
Jun 16
First Quarter
Jun 23
Full

Hourly Weather History & Observations

Time (MST) Temp. Dew Point Humidity Pressure Visibility Wind Dir Wind Speed Gust Speed Precip Events Conditions
12:15 AM 53.6 °F 14.0 °F 21% 30.19 in 10.0 mi SSE 6.9 mph - N/A   Clear
12:35 AM 53.6 °F 17.6 °F 24% 30.19 in 10.0 mi SSE 6.9 mph - N/A   Clear
12:55 AM 55.4 °F 17.6 °F 23% 30.19 in 10.0 mi South 5.8 mph - N/A   Clear
1:15 AM 55.4 °F 23.0 °F 29% 30.19 in 10.0 mi South 11.5 mph - N/A   Clear
1:35 AM 53.6 °F 24.8 °F 33% 30.18 in 10.0 mi SSE 9.2 mph - N/A   Clear
1:55 AM 55.4 °F 23.0 °F 29% 30.17 in 10.0 mi SSE 13.8 mph 20.7 mph N/A   Clear
2:15 AM 55.4 °F 19.4 °F 25% 30.17 in 10.0 mi SSE 15.0 mph 19.6 mph N/A   Clear
2:35 AM 55.4 °F 19.4 °F 25% 30.17 in 10.0 mi SSE 11.5 mph 18.4 mph N/A   Clear
2:55 AM 53.6 °F 17.6 °F 24% 30.16 in 10.0 mi SSE 8.1 mph - N/A   Clear
3:15 AM 50.0 °F 17.6 °F 28% 30.16 in 10.0 mi SSE 8.1 mph - N/A   Clear
3:35 AM 51.8 °F 12.2 °F 21% 30.16 in 10.0 mi SSE 10.4 mph - N/A   Clear
3:55 AM 50.0 °F 12.2 °F 22% 30.16 in 10.0 mi SSE 8.1 mph - N/A   Clear
4:15 AM 50.0 °F 8.6 °F 19% 30.16 in 10.0 mi SE 8.1 mph - N/A   Clear
4:35 AM 50.0 °F 6.8 °F 17% 30.17 in 10.0 mi SE 12.7 mph - N/A   Clear
4:55 AM 53.6 °F 14.0 °F 21% 30.17 in 10.0 mi SE 15.0 mph 19.6 mph N/A   Clear
5:15 AM 51.8 °F 15.8 °F 24% 30.17 in 10.0 mi SE 15.0 mph - N/A   Clear
5:35 AM 53.6 °F 15.8 °F 22% 30.18 in 10.0 mi SSE 17.3 mph 23.0 mph N/A   Clear
5:55 AM 53.6 °F 17.6 °F 24% 30.18 in 10.0 mi SSE 15.0 mph - N/A   Clear
6:15 AM 53.6 °F 17.6 °F 24% 30.19 in 10.0 mi SSE 16.1 mph 23.0 mph N/A   Clear
6:35 AM 55.4 °F 15.8 °F 21% 30.19 in 10.0 mi SE 17.3 mph - N/A   Clear
6:55 AM 57.2 °F 14.0 °F 18% 30.20 in 10.0 mi SE 18.4 mph - N/A   Clear
7:15 AM 57.2 °F 12.2 °F 17% 30.19 in 10.0 mi SE 17.3 mph - N/A   Clear
7:35 AM 59.0 °F 8.6 °F 14% 30.20 in 10.0 mi SSE 16.1 mph 20.7 mph N/A   Clear
7:55 AM 60.8 °F 6.8 °F 12% 30.21 in 10.0 mi SSE 15.0 mph - N/A   Clear
8:15 AM 62.6 °F 8.6 °F 12% 30.21 in 10.0 mi SSE 13.8 mph - N/A   Clear
8:35 AM 64.4 °F 3.2 °F 9% 30.22 in 10.0 mi SSE 16.1 mph 21.9 mph N/A   Clear
8:55 AM 64.4 °F 8.6 °F 11% 30.22 in 10.0 mi SSE 17.3 mph 25.3 mph N/A   Clear
9:15 AM 64.4 °F 14.0 °F 14% 30.22 in 10.0 mi SSE 17.3 mph 23.0 mph N/A   Clear
9:35 AM 66.2 °F 15.8 °F 14% 30.21 in 10.0 mi SSE 18.4 mph 24.2 mph N/A   Clear
9:55 AM 66.2 °F 14.0 °F 13% 30.21 in 10.0 mi SSE 17.3 mph 25.3 mph N/A   Clear
10:15 AM 68.0 °F 10.4 °F 11% 30.21 in 10.0 mi SSE 13.8 mph 21.9 mph N/A   Clear
10:35 AM 68.0 °F 10.4 °F 11% 30.22 in 10.0 mi SSE 10.4 mph 21.9 mph N/A   Clear
10:55 AM 68.0 °F 8.6 °F 10% 30.23 in 10.0 mi South 12.7 mph 20.7 mph N/A   Clear
11:15 AM 69.8 °F 10.4 °F 10% 30.23 in 10.0 mi South 12.7 mph 19.6 mph N/A   Clear
11:35 AM 69.8 °F 10.4 °F 10% 30.23 in 10.0 mi SSW 15.0 mph 27.6 mph N/A   Clear
11:55 AM 69.8 °F 12.2 °F 11% 30.23 in 10.0 mi South 19.6 mph 25.3 mph N/A   Clear
12:15 PM 71.6 °F 12.2 °F 10% 30.23 in 10.0 mi SSE 17.3 mph 25.3 mph N/A   Clear
12:35 PM 71.6 °F 10.4 °F 9% 30.23 in 10.0 mi South 19.6 mph 25.3 mph N/A   Clear
12:55 PM 68.0 °F 10.4 °F 11% 30.22 in 10.0 mi South 12.7 mph 25.3 mph N/A   Clear
1:15 PM 69.8 °F 10.4 °F 10% 30.22 in 10.0 mi SSW 15.0 mph 25.3 mph N/A   Clear
1:35 PM 71.6 °F 8.6 °F 9% 30.22 in 10.0 mi South 17.3 mph 26.5 mph N/A   Clear
1:55 PM 71.6 °F 10.4 °F 9% 30.21 in 10.0 mi SSW 21.9 mph - N/A   Clear
2:15 PM 75.2 °F 10.4 °F 8% 30.20 in 10.0 mi South 19.6 mph 28.8 mph N/A   Clear
2:35 PM 73.4 °F 10.4 °F 9% 30.21 in 10.0 mi South 20.7 mph 29.9 mph N/A   Clear
2:55 PM 73.4 °F 10.4 °F 9% 30.20 in 10.0 mi South 20.7 mph 27.6 mph N/A   Clear
3:15 PM 73.4 °F 10.4 °F 9% 30.20 in 10.0 mi South 19.6 mph 26.5 mph N/A   Partly Cloudy
3:35 PM 73.4 °F 8.6 °F 8% 30.20 in 10.0 mi SSE 21.9 mph 27.6 mph N/A   Clear
3:55 PM 73.4 °F 8.6 °F 8% 30.20 in 10.0 mi SSW 21.9 mph 28.8 mph N/A   Clear
4:15 PM 73.4 °F 8.6 °F 8% 30.20 in 10.0 mi South 16.1 mph 24.2 mph N/A   Clear
4:35 PM 71.6 °F 8.6 °F 9% 30.19 in 10.0 mi SW 21.9 mph 29.9 mph N/A   Clear
4:55 PM 71.6 °F 8.6 °F 9% 30.19 in 10.0 mi SSW 15.0 mph 24.2 mph N/A   Clear
5:15 PM 71.6 °F 8.6 °F 9% 30.19 in 10.0 mi South 17.3 mph 25.3 mph N/A   Clear
5:35 PM 69.8 °F 10.4 °F 10% 30.19 in 10.0 mi SSW 15.0 mph 21.9 mph N/A   Clear
5:55 PM 68.0 °F 12.2 °F 12% 30.19 in 10.0 mi SSE 18.4 mph 27.6 mph N/A   Clear
6:15 PM 68.0 °F 12.2 °F 12% 30.19 in 10.0 mi South 12.7 mph 20.7 mph N/A   Clear
6:35 PM 66.2 °F 12.2 °F 12% 30.19 in 10.0 mi South 17.3 mph 24.2 mph N/A   Clear
6:55 PM 66.2 °F 14.0 °F 13% 30.19 in 10.0 mi SSW 15.0 mph 19.6 mph N/A   Clear
7:15 PM 64.4 °F 14.0 °F 14% 30.20 in 10.0 mi SSW 10.4 mph - N/A   Clear
7:35 PM 62.6 °F 14.0 °F 15% 30.20 in 10.0 mi SSW 12.7 mph 17.3 mph N/A   Clear
7:55 PM 62.6 °F 12.2 °F 14% 30.20 in 10.0 mi South 9.2 mph 16.1 mph N/A   Clear
8:15 PM 59.0 °F 12.2 °F 16% 30.20 in 10.0 mi South 6.9 mph - N/A   Clear
8:35 PM 57.2 °F 14.0 °F 18% 30.20 in 10.0 mi South 6.9 mph - N/A   Clear
8:55 PM 57.2 °F 12.2 °F 17% 30.21 in 10.0 mi South 8.1 mph - N/A   Clear
9:15 PM 57.2 °F 12.2 °F 17% 30.21 in 10.0 mi South 10.4 mph - N/A   Clear
9:35 PM 57.2 °F 12.2 °F 17% 30.22 in 10.0 mi South 9.2 mph - N/A   Clear
9:55 PM 57.2 °F 12.2 °F 17% 30.22 in 10.0 mi South 9.2 mph - N/A   Clear
10:15 PM 57.2 °F 12.2 °F 17% 30.23 in 10.0 mi South 6.9 mph - N/A   Clear
10:35 PM 57.2 °F 14.0 °F 18% 30.22 in 10.0 mi South 5.8 mph - N/A   Clear
10:55 PM 55.4 °F 14.0 °F 20% 30.22 in 10.0 mi South 6.9 mph - N/A   Clear
11:15 PM 53.6 °F 14.0 °F 21% 30.22 in 10.0 mi South 6.9 mph - N/A   Clear
11:35 PM 55.4 °F 14.0 °F 20% 30.22 in 10.0 mi South 4.6 mph - N/A   Clear
11:55 PM 55.4 °F 14.0 °F 20% 30.22 in 10.0 mi South 6.9 mph - N/A   Clear